| time (UTC) | temp F | wind direction | speed MPH | gust MPH | rain 1hr in | rain 24hr in | rain mn in | humidity % | barometer mb |
| 20260505093035 | 63 | 248 | 3.0 | 6.0 | 0.00 | 0.00 | 0.00 | 63 | 1008.3 |
| 20260505091551 | 63 | 253 | 2.0 | 6.0 | 0.00 | 0.00 | 0.00 | 62 | 1007.9 |
| 20260505090050 | 63 | 239 | 3.0 | 7.0 | 0.00 | 0.00 | 0.00 | 62 | 1007.4 |
| 20260505084537 | 63 | 297 | 2.0 | 9.0 | 0.00 | 0.00 | 0.00 | 62 | 1007.1 |
| 20260505083044 | 64 | 235 | 3.0 | 9.0 | 0.00 | 0.00 | 0.00 | 62 | 1007.0 |
| 20260505081550 | 64 | 273 | 3.0 | 8.0 | 0.00 | 0.00 | 0.00 | 61 | 1006.6 |
| 20260505080041 | 64 | 271 | 4.0 | 9.0 | 0.00 | 0.00 | 0.00 | 61 | 1006.4 |
| 20260505074541 | 64 | 221 | 4.0 | 10.0 | 0.00 | 0.00 | 0.00 | 60 | 1006.5 |
| 20260505073033 | 64 | 235 | 4.0 | 9.0 | 0.00 | 0.00 | 0.00 | 60 | 1006.3 |
| 20260505071531 | 64 | 235 | 3.0 | 10.0 | 0.00 | 0.00 | 0.00 | 60 | 1006.1 |
| 20260505070039 | 65 | 287 | 4.0 | 13.0 | 0.00 | 0.00 | 0.00 | 60 | 1006.4 |
| 20260505064537 | 65 | 267 | 4.0 | 12.0 | 0.00 | 0.00 | 0.00 | 59 | 1006.5 |
| 20260505063041 | 65 | 240 | 5.0 | 12.0 | 0.00 | 0.00 | 0.00 | 58 | 1006.5 |
| 20260505061551 | 65 | 240 | 4.0 | 11.0 | 0.00 | 0.00 | 0.00 | 58 | 1006.4 |
| 20260505060034 | 65 | 224 | 4.0 | 9.0 | 0.00 | 0.00 | 0.00 | 57 | 1006.0 |
| 20260505054536 | 66 | 233 | 5.0 | 11.0 | 0.00 | 0.00 | 0.00 | 57 | 1005.8 |
| 20260505053038 | 65 | 243 | 5.0 | 10.0 | 0.00 | 0.00 | 0.00 | 58 | 1005.8 |
| 20260505051535 | 65 | 248 | 4.0 | 13.0 | 0.00 | 0.00 | 0.00 | 59 | 1005.8 |
| 20260505041532 | 66 | 258 | 4.0 | 7.0 | 0.00 | 0.00 | 0.00 | 58 | 1006.4 |
| 20260505040038 | 67 | 244 | 4.0 | 10.0 | 0.00 | 0.00 | 0.00 | 58 | 1006.5 |
| 20260505034530 | 66 | 248 | 3.0 | 9.0 | 0.00 | 0.00 | 0.00 | 59 | 1006.4 |
| 20260505033045 | 67 | 280 | 3.0 | 7.0 | 0.00 | 0.00 | 0.00 | 58 | 1006.5 |
| 20260505031532 | 67 | 227 | 3.0 | 10.0 | 0.00 | 0.00 | 0.00 | 58 | 1006.4 |
| 20260505030030 | 67 | 256 | 3.0 | 7.0 | 0.00 | 0.00 | 0.00 | 58 | 1006.2 |
| 20260505024552 | 67 | 267 | 3.0 | 8.0 | 0.00 | 0.00 | 0.00 | 59 | 1006.0 |
| 20260505023037 | 67 | 247 | 2.0 | 4.0 | 0.00 | 0.00 | 0.00 | 59 | 1005.7 |
| 20260505021544 | 67 | 233 | 2.0 | 6.0 | 0.00 | 0.00 | 0.00 | 59 | 1005.5 |
| 20260505020039 | 67 | 230 | 2.0 | 4.0 | 0.00 | 0.00 | 0.00 | 59 | 1005.3 |
| 20260505014532 | 67 | 254 | 2.0 | 5.0 | 0.00 | 0.00 | 0.00 | 59 | 1004.9 |
| 20260505013033 | 68 | 232 | 1.0 | 4.0 | 0.00 | 0.00 | 0.00 | 59 | 1004.9 |
| 20260505011542 | 68 | 204 | 2.0 | 6.0 | 0.00 | 0.00 | 0.00 | 58 | 1004.9 |
| 20260505010031 | 68 | 244 | 1.0 | 3.0 | 0.00 | 0.00 | 0.00 | 58 | 1004.9 |
| 20260505004541 | 69 | 212 | 2.0 | 6.0 | 0.00 | 0.00 | 0.00 | 57 | 1004.8 |
| 20260505003032 | 70 | 231 | 2.0 | 8.0 | 0.00 | 0.00 | 0.00 | 55 | 1004.8 |
| 20260505001533 | 71 | 275 | 2.0 | 6.0 | 0.00 | 0.00 | 0.00 | 54 | 1005.0 |
| 20260505000030 | 72 | 265 | 4.0 | 9.0 | 0.00 | 0.00 | 0.00 | 52 | 1005.1 |
| 20260504234530 | 73 | 279 | 3.0 | 7.0 | 0.00 | 0.00 | 0.00 | 51 | 1005.1 |
| 20260504233030 | 73 | 292 | 4.0 | 9.0 | 0.00 | 0.00 | 0.00 | 48 | 1005.5 |
| 20260504231532 | 74 | 230 | 4.0 | 8.0 | 0.00 | 0.00 | 0.00 | 48 | 1005.7 |
| 20260504230031 | 75 | 238 | 3.0 | 11.0 | 0.00 | 0.00 | 0.00 | 48 | 1005.8 |
| 20260504224530 | 75 | 235 | 4.0 | 14.0 | 0.00 | 0.00 | 0.00 | 46 | 1005.9 |
| 20260504223036 | 75 | 226 | 7.0 | 16.0 | 0.00 | 0.00 | 0.00 | 46 | 1006.0 |
| 20260504221536 | 76 | 248 | 7.0 | 23.0 | 0.00 | 0.00 | 0.00 | 44 | 1006.1 |
| 20260504220032 | 77 | 249 | 6.0 | 14.0 | 0.00 | 0.00 | 0.00 | 44 | 1006.0 |
| 20260504214529 | 77 | 247 | 7.0 | 15.0 | 0.00 | 0.00 | 0.00 | 45 | 1006.1 |
| 20260504213030 | 79 | 253 | 6.0 | 18.0 | 0.00 | 0.00 | 0.00 | 44 | 1006.0 |
| 20260504211530 | 77 | 242 | 6.0 | 16.0 | 0.00 | 0.00 | 0.00 | 46 | 1006.5 |
| 20260504210032 | 77 | 216 | 4.0 | 8.0 | 0.00 | 0.00 | 0.00 | 49 | 1006.6 |
| 20260504204546 | 75 | 229 | 3.0 | 8.0 | 0.00 | 0.00 | 0.00 | 50 | 1006.6 |
| 20260504203034 | 77 | 253 | 3.0 | 7.0 | 0.00 | 0.00 | 0.00 | 51 | 1006.8 |
| 20260504201529 | 75 | 236 | 4.0 | 11.0 | 0.00 | 0.00 | 0.00 | 51 | 1007.0 |
| 20260504200036 | 74 | 238 | 3.0 | 10.0 | 0.00 | 0.00 | 0.00 | 53 | 1007.3 |
| 20260504194537 | 74 | 235 | 4.0 | 12.0 | 0.00 | 0.00 | 0.00 | 53 | 1007.5 |
| 20260504193032 | 74 | 241 | 4.0 | 10.0 | 0.00 | 0.00 | 0.00 | 55 | 1007.6 |
| 20260504191530 | 75 | 237 | 3.0 | 9.0 | 0.00 | 0.00 | 0.00 | 55 | 1007.9 |
| 20260504190037 | 74 | 235 | 5.0 | 9.0 | 0.00 | 0.00 | 0.00 | 53 | 1008.2 |
| 20260504184536 | 72 | 227 | 4.0 | 10.0 | 0.00 | 0.00 | 0.00 | 61 | 1008.4 |
| 20260504183032 | 70 | 242 | 3.0 | 11.0 | 0.00 | 0.00 | 0.00 | 59 | 1008.6 |
| 20260504181539 | 70 | 246 | 4.0 | 12.0 | 0.00 | 0.00 | 0.00 | 59 | 1008.4 |
| 20260504180031 | 70 | 281 | 5.0 | 11.0 | 0.00 | 0.00 | 0.00 | 58 | 1008.2 |
| 20260504174533 | 70 | 248 | 4.0 | 12.0 | 0.00 | 0.00 | 0.00 | 61 | 1008.2 |
| 20260504173032 | 69 | 271 | 4.0 | 19.0 | 0.00 | 0.00 | 0.00 | 63 | 1008.2 |
| 20260504171530 | 67 | 244 | 3.0 | 13.0 | 0.00 | 0.00 | 0.00 | 64 | 1008.2 |